Wetterdaten: Montag, 09.11.2015
Datum Zeit Auen-Temp. Temp gefhlt Luftfeuchte Luftdruck Regen Wind Richtung Richtung Taupunkt Windben
09.11.2015 00:00 6,3 C 4,2 C 90 % 1025,3 hPa 0,0 mm 0,0 km/h (0 Bft) S 180 4,8 C 0,0 km/h (0 Bft)
09.11.2015 00:05 6,4 C 4,3 C 90 % 1025,3 hPa 0,0 mm 0,0 km/h (0 Bft) S 180 4,9 C 0,0 km/h (0 Bft)
09.11.2015 00:10 6,5 C 4,3 C 90 % 1025,2 hPa 0,0 mm 0,0 km/h (0 Bft) S 180 5,0 C 0,0 km/h (0 Bft)
09.11.2015 00:15 6,8 C 4,6 C 86 % 1025,2 hPa 0,0 mm 0,0 km/h (0 Bft) S 180 4,6 C 0,0 km/h (0 Bft)
09.11.2015 00:20 6,9 C 4,6 C 91 % 1025,2 hPa 0,0 mm 0,0 km/h (0 Bft) S 180 5,5 C 0,0 km/h (0 Bft)
09.11.2015 00:25 6,9 C 4,6 C 91 % 1025,2 hPa 0,0 mm 0,0 km/h (0 Bft) S 180 5,5 C 0,0 km/h (0 Bft)
09.11.2015 00:30 6,8 C 4,5 C 91 % 1025,2 hPa 0,0 mm 0,0 km/h (0 Bft) S 180 5,4 C 0,0 km/h (0 Bft)
09.11.2015 00:35 7,2 C 4,9 C 86 % 1025,2 hPa 0,0 mm 0,0 km/h (0 Bft) S 180 5,0 C 0,0 km/h (0 Bft)
09.11.2015 00:40 6,9 C 4,6 C 91 % 1025,2 hPa 0,0 mm 0,0 km/h (0 Bft) S 180 5,5 C 0,0 km/h (0 Bft)
09.11.2015 00:45 7,5 C 5,1 C 86 % 1025,2 hPa 0,0 mm 0,0 km/h (0 Bft) S 180 5,3 C 0,0 km/h (0 Bft)
09.11.2015 00:50 7,6 C 5,1 C 91 % 1025,1 hPa 0,0 mm 0,0 km/h (0 Bft) S 180 6,2 C 0,0 km/h (0 Bft)
09.11.2015 00:55 7,4 C 4,9 C 90 % 1025,1 hPa 0,0 mm 0,0 km/h (0 Bft) S 180 5,9 C 0,0 km/h (0 Bft)
09.11.2015 01:00 7,1 C 4,7 C 90 % 1025,1 hPa 0,0 mm 0,0 km/h (0 Bft) S 180 5,6 C 0,0 km/h (0 Bft)
09.11.2015 01:05 7,5 C 5,0 C 90 % 1025,1 hPa 0,0 mm 0,0 km/h (0 Bft) S 180 6,0 C 0,0 km/h (0 Bft)
09.11.2015 01:10 7,2 C 4,8 C 90 % 1025,0 hPa 0,0 mm 0,0 km/h (0 Bft) S 180 5,7 C 0,0 km/h (0 Bft)
09.11.2015 01:15 7,5 C 5,0 C 90 % 1025,0 hPa 0,0 mm 0,0 km/h (0 Bft) S 180 6,0 C 0,0 km/h (0 Bft)
09.11.2015 01:20 7,6 C 5,1 C 90 % 1025,0 hPa 0,0 mm 0,0 km/h (0 Bft) S 180 6,1 C 0,0 km/h (0 Bft)
09.11.2015 01:25 7,9 C 5,3 C 90 % 1025,0 hPa 0,0 mm 0,0 km/h (0 Bft) S 180 6,4 C 0,0 km/h (0 Bft)
09.11.2015 01:30 7,6 C 5,1 C 90 % 1024,8 hPa 0,0 mm 0,0 km/h (0 Bft) S 180 6,1 C 0,0 km/h (0 Bft)
09.11.2015 01:35 7,1 C 4,7 C 89 % 1024,8 hPa 0,0 mm 0,0 km/h (0 Bft) S 180 5,4 C 0,0 km/h (0 Bft)
09.11.2015 01:40 7,1 C 4,7 C 89 % 1024,8 hPa 0,0 mm 0,0 km/h (0 Bft) S 180 5,4 C 0,0 km/h (0 Bft)
09.11.2015 01:45 7,2 C 4,8 C 89 % 1024,8 hPa 0,0 mm 0,0 km/h (0 Bft) S 180 5,5 C 0,0 km/h (0 Bft)
09.11.2015 01:50 7,3 C 4,9 C 89 % 1024,8 hPa 0,0 mm 0,0 km/h (0 Bft) S 180 5,6 C 0,0 km/h (0 Bft)
09.11.2015 01:55 6,9 C 4,6 C 89 % 1024,8 hPa 0,0 mm 0,0 km/h (0 Bft) S 180 5,2 C 0,0 km/h (0 Bft)
09.11.2015 02:00 6,8 C 4,5 C 89 % 1024,8 hPa 0,0 mm 0,0 km/h (0 Bft) S 180 5,1 C 0,0 km/h (0 Bft)
09.11.2015 02:05 6,6 C 4,4 C 89 % 1024,8 hPa 0,0 mm 0,0 km/h (0 Bft) S 180 4,9 C 0,0 km/h (0 Bft)
09.11.2015 02:10 6,3 C 4,2 C 89 % 1024,8 hPa 0,0 mm 0,0 km/h (0 Bft) S 180 4,6 C 0,0 km/h (0 Bft)
09.11.2015 02:15 6,5 C 4,3 C 89 % 1024,8 hPa 0,0 mm 0,0 km/h (0 Bft) S 180 4,8 C 0,0 km/h (0 Bft)
09.11.2015 02:20 6,5 C 4,3 C 89 % 1024,8 hPa 0,0 mm 0,0 km/h (0 Bft) S 180 4,8 C 0,0 km/h (0 Bft)
09.11.2015 02:25 6,2 C 4,1 C 89 % 1024,8 hPa 0,0 mm 0,0 km/h (0 Bft) S 180 4,5 C 0,0 km/h (0 Bft)
09.11.2015 02:29 6,3 C 4,2 C 89 % 1024,8 hPa 0,0 mm 0,0 km/h (0 Bft) S 180 4,6 C 0,0 km/h (0 Bft)
09.11.2015 02:30 6,3 C 4,2 C 89 % 1024,8 hPa 0,0 mm 0,0 km/h (0 Bft) S 180 4,6 C 0,0 km/h (0 Bft)
09.11.2015 02:35 6,4 C 4,3 C 89 % 1024,8 hPa 0,0 mm 0,0 km/h (0 Bft) S 180 4,7 C 0,0 km/h (0 Bft)
09.11.2015 02:40 6,4 C 4,3 C 90 % 1024,8 hPa 0,0 mm 0,0 km/h (0 Bft) S 180 4,9 C 0,0 km/h (0 Bft)
09.11.2015 02:45 6,0 C 4,0 C 89 % 1024,8 hPa 0,0 mm 0,0 km/h (0 Bft) S 180 4,3 C 0,0 km/h (0 Bft)
09.11.2015 02:50 5,9 C 3,9 C 90 % 1025,0 hPa 0,0 mm 0,0 km/h (0 Bft) S 180 4,4 C 0,0 km/h (0 Bft)
09.11.2015 02:55 7,2 C 5,2 C 85 % 1025,0 hPa 0,0 mm 0,0 km/h (0 Bft) S 180 4,9 C 0,0 km/h (0 Bft)
09.11.2015 03:00 9,0 C 6,4 C 84 % 1025,0 hPa 0,0 mm 0,0 km/h (0 Bft) S 180 6,4 C 0,0 km/h (0 Bft)
09.11.2015 03:05 10,6 C 7,1 C 87 % 1025,0 hPa 0,0 mm 0,0 km/h (0 Bft) S 180 8,5 C 0,0 km/h (0 Bft)
09.11.2015 03:10 11,2 C 7,5 C 83 % 1024,8 hPa 0,0 mm 0,0 km/h (0 Bft) S 180 8,4 C 0,0 km/h (0 Bft)
09.11.2015 03:15 12,4 C 8,3 C 73 % 1024,8 hPa 0,0 mm 0,0 km/h (0 Bft) S 180 7,7 C 0,0 km/h (0 Bft)
09.11.2015 03:20 12,4 C 8,3 C 68 % 1024,8 hPa 0,0 mm 0,0 km/h (0 Bft) S 180 6,7 C 0,0 km/h (0 Bft)
09.11.2015 03:25 12,5 C 8,3 C 65 % 1024,8 hPa 0,0 mm 0,0 km/h (0 Bft) S 180 6,1 C 0,0 km/h (0 Bft)
09.11.2015 03:30 12,6 C 8,4 C 64 % 1024,7 hPa 0,0 mm 0,0 km/h (0 Bft) S 180 6,0 C 0,0 km/h (0 Bft)
09.11.2015 03:35 12,5 C 8,3 C 63 % 1024,7 hPa 0,0 mm 0,0 km/h (0 Bft) S 180 5,7 C 0,0 km/h (0 Bft)
09.11.2015 03:40 12,2 C 8,1 C 63 % 1024,7 hPa 0,0 mm 0,0 km/h (0 Bft) S 180 5,4 C 0,0 km/h (0 Bft)
09.11.2015 03:45 9,3 C 6,2 C 64 % 1024,7 hPa 0,0 mm 0,0 km/h (0 Bft) S 180 2,8 C 0,0 km/h (0 Bft)
09.11.2015 03:50 8,1 C 5,4 C 67 % 1024,8 hPa 0,0 mm 0,0 km/h (0 Bft) S 180 2,3 C 0,0 km/h (0 Bft)
09.11.2015 03:55 8,7 C 5,8 C 70 % 1024,8 hPa 0,0 mm 0,0 km/h (0 Bft) S 180 3,5 C 0,0 km/h (0 Bft)
09.11.2015 04:00 8,9 C 5,9 C 70 % 1024,8 hPa 0,0 mm 0,0 km/h (0 Bft) S 180 3,7 C 0,0 km/h (0 Bft)
09.11.2015 04:05 10,9 C 7,3 C 69 % 1024,8 hPa 0,0 mm 0,0 km/h (0 Bft) S 180 5,4 C 0,0 km/h (0 Bft)
09.11.2015 04:10 11,5 C 7,7 C 67 % 1024,6 hPa 0,0 mm 0,0 km/h (0 Bft) S 180 5,6 C 0,0 km/h (0 Bft)
09.11.2015 04:15 12,0 C 8,0 C 64 % 1024,6 hPa 0,0 mm 0,0 km/h (0 Bft) S 180 5,4 C 0,0 km/h (0 Bft)
09.11.2015 04:20 12,4 C 8,3 C 62 % 1024,6 hPa 0,0 mm 0,0 km/h (0 Bft) S 180 5,3 C 0,0 km/h (0 Bft)
09.11.2015 04:25 12,5 C 8,3 C 60 % 1024,6 hPa 0,0 mm 0,0 km/h (0 Bft) S 180 5,0 C 0,0 km/h (0 Bft)
09.11.2015 04:30 12,7 C 8,5 C 59 % 1024,8 hPa 0,0 mm 0,0 km/h (0 Bft) S 180 4,9 C 0,0 km/h (0 Bft)
09.11.2015 04:35 13,1 C 8,7 C 58 % 1024,8 hPa 0,0 mm 0,0 km/h (0 Bft) S 180 5,0 C 0,0 km/h (0 Bft)
09.11.2015 04:40 13,2 C 8,8 C 57 % 1024,8 hPa 0,0 mm 0,0 km/h (0 Bft) S 180 4,9 C 0,0 km/h (0 Bft)
09.11.2015 04:45 13,0 C 8,7 C 56 % 1024,8 hPa 0,0 mm 0,0 km/h (0 Bft) S 180 4,4 C 0,0 km/h (0 Bft)
09.11.2015 04:50 13,0 C 8,7 C 56 % 1024,9 hPa 0,0 mm 0,0 km/h (0 Bft) S 180 4,4 C 0,0 km/h (0 Bft)
09.11.2015 04:55 13,2 C 8,8 C 56 % 1024,9 hPa 0,0 mm 0,0 km/h (0 Bft) S 180 4,6 C 0,0 km/h (0 Bft)
09.11.2015 05:00 13,5 C 9,0 C 55 % 1024,9 hPa 0,0 mm 0,0 km/h (0 Bft) S 180 4,6 C 0,0 km/h (0 Bft)
09.11.2015 05:05 13,9 C 9,3 C 54 % 1024,9 hPa 0,0 mm 0,0 km/h (0 Bft) S 180 4,7 C 0,0 km/h (0 Bft)
09.11.2015 05:10 14,0 C 9,3 C 52 % 1025,0 hPa 0,0 mm 0,0 km/h (0 Bft) S 180 4,3 C 0,0 km/h (0 Bft)
09.11.2015 05:15 14,0 C 9,3 C 51 % 1025,0 hPa 0,0 mm 0,0 km/h (0 Bft) S 180 4,0 C 0,0 km/h (0 Bft)
09.11.2015 05:20 13,8 C 9,2 C 50 % 1025,0 hPa 0,0 mm 0,0 km/h (0 Bft) S 180 3,6 C 0,0 km/h (0 Bft)
09.11.2015 05:25 13,4 C 8,9 C 50 % 1025,0 hPa 0,0 mm 0,0 km/h (0 Bft) S 180 3,2 C 0,0 km/h (0 Bft)
09.11.2015 05:30 13,4 C 8,9 C 50 % 1025,1 hPa 0,0 mm 0,0 km/h (0 Bft) S 180 3,2 C 0,0 km/h (0 Bft)
09.11.2015 05:35 13,7 C 9,1 C 50 % 1025,1 hPa 0,0 mm 0,0 km/h (0 Bft) S 180 3,5 C 0,0 km/h (0 Bft)
09.11.2015 05:40 14,0 C 9,3 C 49 % 1025,1 hPa 0,0 mm 0,0 km/h (0 Bft) S 180 3,5 C 0,0 km/h (0 Bft)
09.11.2015 05:45 13,9 C 9,3 C 49 % 1025,1 hPa 0,0 mm 0,0 km/h (0 Bft) S 180 3,4 C 0,0 km/h (0 Bft)
09.11.2015 05:50 13,7 C 9,1 C 50 % 1025,6 hPa 0,0 mm 0,0 km/h (0 Bft) S 180 3,5 C 0,0 km/h (0 Bft)
09.11.2015 05:55 13,3 C 8,9 C 50 % 1025,6 hPa 0,0 mm 0,0 km/h (0 Bft) S 180 3,1 C 0,0 km/h (0 Bft)
09.11.2015 06:00 13,1 C 8,7 C 51 % 1025,6 hPa 0,0 mm 0,0 km/h (0 Bft) S 180 3,2 C 0,0 km/h (0 Bft)
09.11.2015 06:05 12,9 C 8,6 C 52 % 1025,6 hPa 0,0 mm 0,0 km/h (0 Bft) S 180 3,3 C 0,0 km/h (0 Bft)
09.11.2015 06:10 12,9 C 8,6 C 52 % 1025,9 hPa 0,0 mm 0,0 km/h (0 Bft) S 180 3,3 C 0,0 km/h (0 Bft)
09.11.2015 06:15 12,9 C 8,6 C 52 % 1025,9 hPa 0,0 mm 0,0 km/h (0 Bft) S 180 3,3 C 0,0 km/h (0 Bft)
09.11.2015 06:20 12,9 C 8,6 C 52 % 1025,9 hPa 0,0 mm 0,0 km/h (0 Bft) S 180 3,3 C 0,0 km/h (0 Bft)
09.11.2015 06:25 13,2 C 8,8 C 52 % 1025,9 hPa 0,0 mm 0,0 km/h (0 Bft) S 180 3,6 C 0,0 km/h (0 Bft)
09.11.2015 06:30 13,3 C 8,9 C 52 % 1025,7 hPa 0,0 mm 0,0 km/h (0 Bft) S 180 3,7 C 0,0 km/h (0 Bft)
09.11.2015 06:35 13,2 C 8,8 C 52 % 1025,7 hPa 0,0 mm 0,0 km/h (0 Bft) S 180 3,6 C 0,0 km/h (0 Bft)
09.11.2015 06:40 12,9 C 8,6 C 53 % 1025,7 hPa 0,0 mm 0,0 km/h (0 Bft) S 180 3,6 C 0,0 km/h (0 Bft)
09.11.2015 06:45 13,0 C 8,7 C 53 % 1025,7 hPa 0,0 mm 0,0 km/h (0 Bft) S 180 3,6 C 0,0 km/h (0 Bft)
09.11.2015 06:50 13,2 C 8,8 C 53 % 1026,1 hPa 0,0 mm 0,0 km/h (0 Bft) S 180 3,8 C 0,0 km/h (0 Bft)
09.11.2015 06:55 13,1 C 8,7 C 53 % 1026,1 hPa 0,0 mm 0,0 km/h (0 Bft) S 180 3,7 C 0,0 km/h (0 Bft)
09.11.2015 07:00 13,2 C 8,8 C 53 % 1026,1 hPa 0,0 mm 0,0 km/h (0 Bft) S 180 3,8 C 0,0 km/h (0 Bft)
09.11.2015 07:05 13,3 C 8,9 C 53 % 1026,1 hPa 0,0 mm 0,0 km/h (0 Bft) S 180 3,9 C 0,0 km/h (0 Bft)
09.11.2015 07:10 13,4 C 8,9 C 53 % 1026,3 hPa 0,0 mm 0,0 km/h (0 Bft) S 180 4,0 C 0,0 km/h (0 Bft)
09.11.2015 07:15 13,2 C 8,8 C 53 % 1026,3 hPa 0,0 mm 0,0 km/h (0 Bft) S 180 3,8 C 0,0 km/h (0 Bft)
09.11.2015 07:20 13,3 C 8,9 C 53 % 1026,3 hPa 0,0 mm 0,0 km/h (0 Bft) S 180 3,9 C 0,0 km/h (0 Bft)
09.11.2015 07:25 13,4 C 8,9 C 53 % 1026,3 hPa 0,0 mm 0,0 km/h (0 Bft) S 180 4,0 C 0,0 km/h (0 Bft)
09.11.2015 07:30 13,4 C 8,9 C 53 % 1026,3 hPa 0,0 mm 0,0 km/h (0 Bft) S 180 4,0 C 0,0 km/h (0 Bft)
09.11.2015 07:35 13,5 C 9,0 C 53 % 1026,3 hPa 0,0 mm 0,0 km/h (0 Bft) S 180 4,1 C 0,0 km/h (0 Bft)
09.11.2015 07:40 13,6 C 9,1 C 53 % 1026,3 hPa 0,0 mm 0,0 km/h (0 Bft) S 180 4,2 C 0,0 km/h (0 Bft)
09.11.2015 07:45 13,8 C 9,2 C 53 % 1026,3 hPa 0,0 mm 0,0 km/h (0 Bft) S 180 4,4 C 0,0 km/h (0 Bft)
09.11.2015 07:50 13,9 C 9,3 C 52 % 1026,4 hPa 0,0 mm 0,0 km/h (0 Bft) S 180 4,2 C 0,0 km/h (0 Bft)
09.11.2015 07:55 13,8 C 9,2 C 53 % 1026,4 hPa 0,0 mm 0,0 km/h (0 Bft) S 180 4,4 C 0,0 km/h (0 Bft)
09.11.2015 08:00 13,9 C 9,3 C 53 % 1026,4 hPa 0,0 mm 0,0 km/h (0 Bft) S 180 4,5 C 0,0 km/h (0 Bft)
09.11.2015 08:05 14,0 C 9,3 C 53 % 1026,4 hPa 0,0 mm 0,0 km/h (0 Bft) S 180 4,6 C 0,0 km/h (0 Bft)
09.11.2015 08:10 14,1 C 9,4 C 53 % 1026,7 hPa 0,0 mm 0,0 km/h (0 Bft) S 180 4,7 C 0,0 km/h (0 Bft)
09.11.2015 08:15 14,3 C 9,5 C 53 % 1026,7 hPa 0,0 mm 0,0 km/h (0 Bft) S 180 4,9 C 0,0 km/h (0 Bft)
09.11.2015 08:20 14,5 C 9,7 C 54 % 1026,7 hPa 0,0 mm 0,0 km/h (0 Bft) S 180 5,3 C 0,0 km/h (0 Bft)
09.11.2015 08:25 14,9 C 9,9 C 54 % 1026,7 hPa 0,0 mm 0,0 km/h (0 Bft) S 180 5,7 C 0,0 km/h (0 Bft)
09.11.2015 08:29 14,9 C 9,9 C 54 % 1027,3 hPa 0,0 mm 0,0 km/h (0 Bft) S 180 5,7 C 0,0 km/h (0 Bft)
09.11.2015 08:31 14,9 C 9,9 C 54 % 1027,3 hPa 0,0 mm 0,0 km/h (0 Bft) S 180 5,7 C 0,0 km/h (0 Bft)
09.11.2015 08:35 15,2 C 10,1 C 54 % 1027,3 hPa 0,0 mm 0,0 km/h (0 Bft) S 180 6,0 C 0,0 km/h (0 Bft)
09.11.2015 08:40 15,3 C 10,2 C 54 % 1027,3 hPa 0,0 mm 0,0 km/h (0 Bft) S 180 6,0 C 0,0 km/h (0 Bft)
09.11.2015 08:45 15,4 C 10,3 C 54 % 1027,3 hPa 0,0 mm 0,0 km/h (0 Bft) S 180 6,1 C 0,0 km/h (0 Bft)
09.11.2015 08:50 15,4 C 10,3 C 54 % 1027,1 hPa 0,0 mm 0,0 km/h (0 Bft) S 180 6,1 C 0,0 km/h (0 Bft)
09.11.2015 08:55 15,3 C 10,2 C 54 % 1027,1 hPa 0,0 mm 0,0 km/h (0 Bft) S 180 6,0 C 0,0 km/h (0 Bft)
09.11.2015 09:00 15,4 C 10,3 C 55 % 1027,1 hPa 0,0 mm 0,0 km/h (0 Bft) S 180 6,4 C 0,0 km/h (0 Bft)
09.11.2015 09:05 15,5 C 10,3 C 54 % 1027,1 hPa 0,0 mm 0,0 km/h (0 Bft) S 180 6,2 C 0,0 km/h (0 Bft)
09.11.2015 09:10 15,5 C 10,3 C 54 % 1027,1 hPa 0,0 mm 0,0 km/h (0 Bft) S 180 6,2 C 0,0 km/h (0 Bft)
09.11.2015 09:15 15,4 C 10,3 C 54 % 1027,1 hPa 0,0 mm 0,0 km/h (0 Bft) S 180 6,1 C 0,0 km/h (0 Bft)
09.11.2015 09:20 15,4 C 10,3 C 54 % 1027,1 hPa 0,0 mm 0,0 km/h (0 Bft) S 180 6,1 C 0,0 km/h (0 Bft)
09.11.2015 09:25 15,1 C 10,1 C 55 % 1027,1 hPa 0,0 mm 0,0 km/h (0 Bft) S 180 6,1 C 0,0 km/h (0 Bft)
09.11.2015 09:30 15,0 C 10,0 C 55 % 1027,2 hPa 0,0 mm 0,0 km/h (0 Bft) S 180 6,0 C 0,0 km/h (0 Bft)
09.11.2015 09:35 14,8 C 9,9 C 55 % 1027,2 hPa 0,0 mm 0,0 km/h (0 Bft) S 180 5,8 C 0,0 km/h (0 Bft)
09.11.2015 09:40 14,9 C 9,9 C 56 % 1027,2 hPa 0,0 mm 0,0 km/h (0 Bft) S 180 6,2 C 0,0 km/h (0 Bft)
09.11.2015 09:45 15,1 C 10,1 C 56 % 1027,2 hPa 0,0 mm 0,0 km/h (0 Bft) S 180 6,4 C 0,0 km/h (0 Bft)
09.11.2015 09:50 15,1 C 10,1 C 56 % 1026,9 hPa 0,0 mm 0,0 km/h (0 Bft) S 180 6,4 C 0,0 km/h (0 Bft)
09.11.2015 09:55 15,3 C 10,2 C 56 % 1026,9 hPa 0,0 mm 0,0 km/h (0 Bft) S 180 6,6 C 0,0 km/h (0 Bft)
09.11.2015 10:00 15,6 C 10,4 C 56 % 1026,9 hPa 0,0 mm 0,0 km/h (0 Bft) S 180 6,9 C 0,0 km/h (0 Bft)
09.11.2015 10:05 16,1 C 10,9 C 54 % 1026,9 hPa 0,0 mm 0,0 km/h (0 Bft) S 180 6,8 C 0,0 km/h (0 Bft)
09.11.2015 10:10 16,4 C 10,9 C 53 % 1026,8 hPa 0,0 mm 0,0 km/h (0 Bft) S 180 6,8 C 0,0 km/h (0 Bft)
09.11.2015 10:15 16,4 C 10,9 C 52 % 1026,8 hPa 0,0 mm 0,0 km/h (0 Bft) S 180 6,5 C 0,0 km/h (0 Bft)
09.11.2015 10:20 16,6 C 11,1 C 51 % 1026,8 hPa 0,0 mm 0,0 km/h (0 Bft) S 180 6,4 C 0,0 km/h (0 Bft)
09.11.2015 10:25 17,3 C 11,7 C 50 % 1026,8 hPa 0,0 mm 0,0 km/h (0 Bft) S 180 6,8 C 0,0 km/h (0 Bft)
09.11.2015 10:30 17,6 C 11,9 C 50 % 1026,2 hPa 0,0 mm 0,0 km/h (0 Bft) S 180 7,1 C 0,0 km/h (0 Bft)
09.11.2015 10:35 17,7 C 11,8 C 50 % 1026,2 hPa 0,0 mm 0,0 km/h (0 Bft) S 180 7,1 C 0,0 km/h (0 Bft)
09.11.2015 10:40 17,8 C 11,9 C 50 % 1026,2 hPa 0,0 mm 0,0 km/h (0 Bft) S 180 7,2 C 0,0 km/h (0 Bft)
09.11.2015 10:45 18,0 C 12,0 C 49 % 1026,2 hPa 0,0 mm 0,0 km/h (0 Bft) S 180 7,1 C 0,0 km/h (0 Bft)
09.11.2015 10:50 17,8 C 11,9 C 49 % 1026,2 hPa 0,0 mm 0,0 km/h (0 Bft) S 180 6,9 C 0,0 km/h (0 Bft)
09.11.2015 10:55 17,6 C 11,7 C 49 % 1026,2 hPa 0,0 mm 0,0 km/h (0 Bft) S 180 6,8 C 0,0 km/h (0 Bft)
09.11.2015 11:00 17,6 C 11,7 C 49 % 1026,2 hPa 0,0 mm 0,0 km/h (0 Bft) S 180 6,8 C 0,0 km/h (0 Bft)
09.11.2015 11:05 17,9 C 12,0 C 49 % 1026,2 hPa 0,0 mm 0,0 km/h (0 Bft) S 180 7,0 C 0,0 km/h (0 Bft)
09.11.2015 11:10 17,9 C 11,9 C 49 % 1026,5 hPa 0,0 mm 0,0 km/h (0 Bft) S 180 7,0 C 0,0 km/h (0 Bft)
09.11.2015 11:15 17,5 C 11,7 C 49 % 1026,5 hPa 0,0 mm 0,0 km/h (0 Bft) S 180 6,7 C 0,0 km/h (0 Bft)
09.11.2015 11:20 17,5 C 11,7 C 49 % 1026,5 hPa 0,0 mm 0,0 km/h (0 Bft) S 180 6,7 C 0,0 km/h (0 Bft)
09.11.2015 11:25 17,4 C 11,6 C 50 % 1026,5 hPa 0,0 mm 0,0 km/h (0 Bft) S 180 6,9 C 0,0 km/h (0 Bft)
09.11.2015 11:30 17,5 C 11,7 C 49 % 1026,2 hPa 0,0 mm 0,0 km/h (0 Bft) S 180 6,7 C 0,0 km/h (0 Bft)
09.11.2015 11:35 17,7 C 11,9 C 50 % 1026,2 hPa 0,0 mm 0,0 km/h (0 Bft) S 180 7,1 C 0,0 km/h (0 Bft)
09.11.2015 11:40 17,8 C 11,9 C 50 % 1026,2 hPa 0,0 mm 0,0 km/h (0 Bft) S 180 7,2 C 0,0 km/h (0 Bft)
09.11.2015 11:45 17,9 C 11,9 C 50 % 1026,2 hPa 0,0 mm 0,0 km/h (0 Bft) S 180 7,3 C 0,0 km/h (0 Bft)
09.11.2015 11:50 17,9 C 11,9 C 50 % 1026,4 hPa 0,0 mm 0,0 km/h (0 Bft) S 180 7,3 C 0,0 km/h (0 Bft)
09.11.2015 11:55 17,6 C 11,7 C 50 % 1026,4 hPa 0,0 mm 0,0 km/h (0 Bft) S 180 7,1 C 0,0 km/h (0 Bft)
09.11.2015 12:00 17,5 C 11,7 C 50 % 1026,4 hPa 0,0 mm 0,0 km/h (0 Bft) S 180 7,0 C 0,0 km/h (0 Bft)
09.11.2015 12:05 17,3 C 11,5 C 50 % 1026,4 hPa 0,0 mm 0,0 km/h (0 Bft) S 180 6,8 C 0,0 km/h (0 Bft)
09.11.2015 12:10 17,3 C 11,6 C 51 % 1026,4 hPa 0,0 mm 0,0 km/h (0 Bft) S 180 7,1 C 0,0 km/h (0 Bft)
09.11.2015 12:15 17,5 C 11,7 C 51 % 1026,4 hPa 0,0 mm 0,0 km/h (0 Bft) S 180 7,3 C 0,0 km/h (0 Bft)
09.11.2015 12:20 17,5 C 11,7 C 51 % 1026,4 hPa 0,0 mm 0,0 km/h (0 Bft) S 180 7,3 C 0,0 km/h (0 Bft)
09.11.2015 12:25 17,3 C 11,6 C 51 % 1026,4 hPa 0,0 mm 0,0 km/h (0 Bft) S 180 7,1 C 0,0 km/h (0 Bft)
09.11.2015 12:30 17,3 C 11,6 C 52 % 1026,6 hPa 0,0 mm 0,0 km/h (0 Bft) S 180 7,3 C 0,0 km/h (0 Bft)
09.11.2015 12:35 17,1 C 11,4 C 52 % 1026,6 hPa 0,0 mm 0,0 km/h (0 Bft) S 180 7,2 C 0,0 km/h (0 Bft)
09.11.2015 12:40 17,0 C 11,3 C 52 % 1026,6 hPa 0,0 mm 0,0 km/h (0 Bft) S 180 7,1 C 0,0 km/h (0 Bft)
09.11.2015 12:45 16,9 C 11,3 C 52 % 1026,6 hPa 0,0 mm 0,0 km/h (0 Bft) S 180 7,0 C 0,0 km/h (0 Bft)
09.11.2015 12:50 16,9 C 11,3 C 51 % 1026,9 hPa 0,0 mm 0,0 km/h (0 Bft) S 180 6,7 C 0,0 km/h (0 Bft)
09.11.2015 12:55 16,9 C 11,3 C 51 % 1026,9 hPa 0,0 mm 0,0 km/h (0 Bft) S 180 6,7 C 0,0 km/h (0 Bft)
09.11.2015 13:00 17,0 C 11,4 C 50 % 1026,9 hPa 0,0 mm 0,0 km/h (0 Bft) S 180 6,5 C 0,0 km/h (0 Bft)
09.11.2015 13:05 17,2 C 11,5 C 50 % 1026,9 hPa 0,0 mm 0,0 km/h (0 Bft) S 180 6,7 C 0,0 km/h (0 Bft)
09.11.2015 13:10 17,3 C 11,7 C 50 % 1026,2 hPa 0,0 mm 0,0 km/h (0 Bft) S 180 6,8 C 0,0 km/h (0 Bft)
09.11.2015 13:15 17,6 C 11,7 C 50 % 1026,2 hPa 0,0 mm 0,0 km/h (0 Bft) S 180 7,1 C 0,0 km/h (0 Bft)
09.11.2015 13:20 17,9 C 11,9 C 50 % 1026,2 hPa 0,0 mm 0,0 km/h (0 Bft) S 180 7,3 C 0,0 km/h (0 Bft)
09.11.2015 13:25 18,3 C 12,2 C 49 % 1026,2 hPa 0,0 mm 0,0 km/h (0 Bft) S 180 7,4 C 0,0 km/h (0 Bft)
09.11.2015 13:30 18,5 C 12,3 C 49 % 1025,8 hPa 0,0 mm 0,0 km/h (0 Bft) S 180 7,6 C 0,0 km/h (0 Bft)
09.11.2015 13:35 18,8 C 12,5 C 50 % 1025,8 hPa 0,0 mm 0,0 km/h (0 Bft) S 180 8,2 C 0,0 km/h (0 Bft)
09.11.2015 13:40 18,7 C 12,5 C 49 % 1025,8 hPa 0,0 mm 0,0 km/h (0 Bft) S 180 7,8 C 0,0 km/h (0 Bft)
09.11.2015 13:45 18,9 C 12,6 C 49 % 1025,8 hPa 0,0 mm 0,0 km/h (0 Bft) S 180 7,9 C 0,0 km/h (0 Bft)
09.11.2015 13:50 18,9 C 12,6 C 49 % 1026,2 hPa 0,0 mm 0,0 km/h (0 Bft) S 180 7,9 C 0,0 km/h (0 Bft)
09.11.2015 13:55 18,8 C 12,7 C 49 % 1026,2 hPa 0,0 mm 0,0 km/h (0 Bft) S 180 7,9 C 0,0 km/h (0 Bft)
09.11.2015 14:00 18,7 C 12,8 C 50 % 1026,2 hPa 0,0 mm 0,0 km/h (0 Bft) S 180 8,1 C 0,0 km/h (0 Bft)
09.11.2015 14:05 18,6 C 12,7 C 50 % 1026,2 hPa 0,0 mm 0,0 km/h (0 Bft) S 180 8,0 C 0,0 km/h (0 Bft)
09.11.2015 14:10 18,6 C 12,9 C 50 % 1026,7 hPa 0,0 mm 0,0 km/h (0 Bft) S 180 8,0 C 0,0 km/h (0 Bft)
09.11.2015 14:15 18,7 C 12,7 C 50 % 1026,7 hPa 0,0 mm 0,0 km/h (0 Bft) S 180 8,1 C 0,0 km/h (0 Bft)
09.11.2015 14:20 19,1 C 12,9 C 50 % 1026,7 hPa 0,0 mm 0,0 km/h (0 Bft) S 180 8,4 C 0,0 km/h (0 Bft)
09.11.2015 14:25 19,0 C 12,7 C 50 % 1026,7 hPa 0,0 mm 0,0 km/h (0 Bft) S 180 8,3 C 0,0 km/h (0 Bft)
09.11.2015 14:29 19,0 C 12,7 C 50 % 1026,5 hPa 0,0 mm 0,0 km/h (0 Bft) S 180 8,3 C 0,0 km/h (0 Bft)
09.11.2015 14:31 19,0 C 12,7 C 50 % 1026,5 hPa 0,0 mm 0,0 km/h (0 Bft) S 180 8,3 C 0,0 km/h (0 Bft)
09.11.2015 14:35 19,1 C 12,8 C 49 % 1026,5 hPa 0,0 mm 0,0 km/h (0 Bft) S 180 8,1 C 0,0 km/h (0 Bft)
09.11.2015 14:40 19,2 C 13,0 C 49 % 1026,5 hPa 0,0 mm 0,0 km/h (0 Bft) S 180 8,2 C 0,0 km/h (0 Bft)
09.11.2015 14:45 19,3 C 12,9 C 49 % 1026,5 hPa 0,0 mm 0,0 km/h (0 Bft) S 180 8,3 C 0,0 km/h (0 Bft)
09.11.2015 14:50 19,0 C 12,7 C 49 % 1026,7 hPa 0,0 mm 0,0 km/h (0 Bft) S 180 8,0 C 0,0 km/h (0 Bft)
09.11.2015 14:55 18,9 C 12,6 C 49 % 1026,7 hPa 0,0 mm 0,0 km/h (0 Bft) S 180 7,9 C 0,0 km/h (0 Bft)
09.11.2015 15:00 19,0 C 12,7 C 49 % 1026,7 hPa 0,0 mm 0,0 km/h (0 Bft) S 180 8,0 C 0,0 km/h (0 Bft)
09.11.2015 15:05 18,6 C 12,4 C 49 % 1026,7 hPa 0,0 mm 0,0 km/h (0 Bft) S 180 7,7 C 0,0 km/h (0 Bft)
09.11.2015 15:10 18,3 C 12,2 C 50 % 1026,4 hPa 0,0 mm 0,0 km/h (0 Bft) S 180 7,7 C 0,0 km/h (0 Bft)
09.11.2015 15:15 18,2 C 12,1 C 50 % 1026,4 hPa 0,0 mm 0,0 km/h (0 Bft) S 180 7,6 C 0,0 km/h (0 Bft)
09.11.2015 15:20 18,1 C 12,1 C 50 % 1026,4 hPa 0,0 mm 0,0 km/h (0 Bft) S 180 7,5 C 0,0 km/h (0 Bft)
09.11.2015 15:25 17,8 C 11,9 C 50 % 1026,4 hPa 0,0 mm 0,0 km/h (0 Bft) S 180 7,2 C 0,0 km/h (0 Bft)
09.11.2015 15:30 17,6 C 11,7 C 50 % 1026,6 hPa 0,0 mm 0,0 km/h (0 Bft) S 180 7,1 C 0,0 km/h (0 Bft)
09.11.2015 15:35 17,5 C 11,7 C 51 % 1026,6 hPa 0,0 mm 0,0 km/h (0 Bft) S 180 7,3 C 0,0 km/h (0 Bft)
09.11.2015 15:40 17,3 C 11,5 C 51 % 1026,6 hPa 0,0 mm 0,0 km/h (0 Bft) S 180 7,1 C 0,0 km/h (0 Bft)
09.11.2015 15:45 17,1 C 11,4 C 52 % 1026,6 hPa 0,0 mm 0,0 km/h (0 Bft) S 180 7,2 C 0,0 km/h (0 Bft)
09.11.2015 15:50 17,1 C 11,4 C 53 % 1026,3 hPa 0,0 mm 0,0 km/h (0 Bft) S 180 7,4 C 0,0 km/h (0 Bft)
09.11.2015 15:55 17,0 C 11,3 C 53 % 1026,3 hPa 0,0 mm 0,0 km/h (0 Bft) S 180 7,4 C 0,0 km/h (0 Bft)
09.11.2015 16:00 17,0 C 11,3 C 54 % 1026,3 hPa 0,0 mm 0,0 km/h (0 Bft) S 180 7,6 C 0,0 km/h (0 Bft)
09.11.2015 16:05 17,0 C 11,3 C 54 % 1026,3 hPa 0,0 mm 0,0 km/h (0 Bft) S 180 7,6 C 0,0 km/h (0 Bft)
09.11.2015 16:10 16,9 C 11,3 C 54 % 1026,4 hPa 0,0 mm 0,0 km/h (0 Bft) S 180 7,5 C 0,0 km/h (0 Bft)
09.11.2015 16:15 16,8 C 11,2 C 55 % 1026,4 hPa 0,0 mm 0,0 km/h (0 Bft) S 180 7,7 C 0,0 km/h (0 Bft)
09.11.2015 16:20 16,5 C 11,0 C 55 % 1026,4 hPa 0,0 mm 0,0 km/h (0 Bft) S 180 7,4 C 0,0 km/h (0 Bft)
09.11.2015 16:25 16,4 C 10,9 C 55 % 1026,4 hPa 0,0 mm 0,0 km/h (0 Bft) S 180 7,3 C 0,0 km/h (0 Bft)
09.11.2015 16:30 16,4 C 10,9 C 56 % 1026,5 hPa 0,0 mm 0,0 km/h (0 Bft) S 180 7,6 C 0,0 km/h (0 Bft)
09.11.2015 16:35 16,0 C 10,7 C 56 % 1026,5 hPa 0,0 mm 0,0 km/h (0 Bft) S 180 7,2 C 0,0 km/h (0 Bft)
09.11.2015 16:40 16,0 C 10,7 C 56 % 1026,5 hPa 0,0 mm 0,0 km/h (0 Bft) S 180 7,2 C 0,0 km/h (0 Bft)
09.11.2015 16:45 15,8 C 10,5 C 58 % 1026,5 hPa 0,0 mm 0,0 km/h (0 Bft) S 180 7,6 C 0,0 km/h (0 Bft)
09.11.2015 16:50 15,6 C 10,4 C 58 % 1026,4 hPa 0,0 mm 0,0 km/h (0 Bft) S 180 7,4 C 0,0 km/h (0 Bft)
09.11.2015 16:55 15,4 C 10,3 C 58 % 1026,4 hPa 0,0 mm 0,0 km/h (0 Bft) S 180 7,2 C 0,0 km/h (0 Bft)
09.11.2015 17:00 15,4 C 10,3 C 58 % 1026,4 hPa 0,0 mm 0,0 km/h (0 Bft) S 180 7,2 C 0,0 km/h (0 Bft)
09.11.2015 17:05 15,3 C 10,2 C 58 % 1026,4 hPa 0,0 mm 0,0 km/h (0 Bft) S 180 7,1 C 0,0 km/h (0 Bft)
09.11.2015 17:10 15,6 C 10,4 C 58 % 1026,4 hPa 0,0 mm 0,0 km/h (0 Bft) S 180 7,4 C 0,0 km/h (0 Bft)
09.11.2015 17:15 15,5 C 10,3 C 59 % 1026,4 hPa 0,0 mm 0,0 km/h (0 Bft) S 180 7,5 C 0,0 km/h (0 Bft)
09.11.2015 17:20 15,4 C 10,3 C 59 % 1026,4 hPa 0,0 mm 0,0 km/h (0 Bft) S 180 7,4 C 0,0 km/h (0 Bft)
09.11.2015 17:25 15,6 C 10,4 C 59 % 1026,4 hPa 0,0 mm 0,0 km/h (0 Bft) S 180 7,6 C 0,0 km/h (0 Bft)
09.11.2015 17:30 15,5 C 10,3 C 59 % 1026,4 hPa 0,0 mm 0,0 km/h (0 Bft) S 180 7,5 C 0,0 km/h (0 Bft)
09.11.2015 17:35 15,5 C 10,3 C 59 % 1026,4 hPa 0,0 mm 0,0 km/h (0 Bft) S 180 7,5 C 0,0 km/h (0 Bft)
09.11.2015 17:40 15,4 C 10,3 C 59 % 1026,4 hPa 0,0 mm 0,0 km/h (0 Bft) S 180 7,4 C 0,0 km/h (0 Bft)
09.11.2015 17:45 15,3 C 10,2 C 59 % 1026,4 hPa 0,0 mm 0,0 km/h (0 Bft) S 180 7,3 C 0,0 km/h (0 Bft)
09.11.2015 17:50 15,0 C 10,0 C 59 % 1026,5 hPa 0,0 mm 0,0 km/h (0 Bft) S 180 7,1 C 0,0 km/h (0 Bft)
09.11.2015 17:55 15,1 C 10,1 C 59 % 1026,5 hPa 0,0 mm 0,0 km/h (0 Bft) S 180 7,1 C 0,0 km/h (0 Bft)
09.11.2015 18:00 15,0 C 10,0 C 59 % 1026,5 hPa 0,0 mm 0,0 km/h (0 Bft) S 180 7,1 C 0,0 km/h (0 Bft)
09.11.2015 18:05 14,8 C 9,9 C 60 % 1026,5 hPa 0,0 mm 0,0 km/h (0 Bft) S 180 7,1 C 0,0 km/h (0 Bft)
09.11.2015 18:10 14,6 C 9,7 C 60 % 1026,5 hPa 0,0 mm 0,0 km/h (0 Bft) S 180 6,9 C 0,0 km/h (0 Bft)
09.11.2015 18:15 14,4 C 9,6 C 61 % 1026,5 hPa 0,0 mm 0,0 km/h (0 Bft) S 180 7,0 C 0,0 km/h (0 Bft)
09.11.2015 18:20 14,5 C 9,7 C 61 % 1026,5 hPa 0,0 mm 0,0 km/h (0 Bft) S 180 7,1 C 0,0 km/h (0 Bft)
09.11.2015 18:25 14,5 C 9,7 C 62 % 1026,5 hPa 0,0 mm 0,0 km/h (0 Bft) S 180 7,3 C 0,0 km/h (0 Bft)
09.11.2015 18:30 13,9 C 9,3 C 62 % 1026,8 hPa 0,0 mm 0,0 km/h (0 Bft) S 180 6,7 C 0,0 km/h (0 Bft)
09.11.2015 18:35 13,8 C 9,2 C 63 % 1026,8 hPa 0,0 mm 0,0 km/h (0 Bft) S 180 6,9 C 0,0 km/h (0 Bft)
09.11.2015 18:40 13,6 C 9,1 C 63 % 1026,8 hPa 0,0 mm 0,0 km/h (0 Bft) S 180 6,7 C 0,0 km/h (0 Bft)
09.11.2015 18:45 13,5 C 9,0 C 65 % 1026,8 hPa 0,0 mm 0,0 km/h (0 Bft) S 180 7,1 C 0,0 km/h (0 Bft)
09.11.2015 18:50 13,5 C 9,0 C 65 % 1027,1 hPa 0,0 mm 0,0 km/h (0 Bft) S 180 7,1 C 0,0 km/h (0 Bft)
09.11.2015 18:55 13,6 C 9,1 C 66 % 1027,1 hPa 0,0 mm 0,0 km/h (0 Bft) S 180 7,4 C 0,0 km/h (0 Bft)
09.11.2015 19:00 13,5 C 9,0 C 66 % 1027,1 hPa 0,0 mm 0,0 km/h (0 Bft) S 180 7,3 C 0,0 km/h (0 Bft)
09.11.2015 19:05 13,4 C 8,9 C 66 % 1027,1 hPa 0,0 mm 0,0 km/h (0 Bft) S 180 7,2 C 0,0 km/h (0 Bft)
09.11.2015 19:10 13,6 C 9,1 C 67 % 1027,1 hPa 0,0 mm 0,0 km/h (0 Bft) S 180 7,6 C 0,0 km/h (0 Bft)
09.11.2015 19:15 13,5 C 9,0 C 67 % 1027,1 hPa 0,0 mm 0,0 km/h (0 Bft) S 180 7,5 C 0,0 km/h (0 Bft)
09.11.2015 19:20 13,5 C 9,0 C 67 % 1027,1 hPa 0,0 mm 0,0 km/h (0 Bft) S 180 7,5 C 0,0 km/h (0 Bft)
09.11.2015 19:25 13,3 C 8,9 C 67 % 1027,1 hPa 0,0 mm 0,0 km/h (0 Bft) S 180 7,3 C 0,0 km/h (0 Bft)
09.11.2015 19:30 13,2 C 8,8 C 67 % 1027,1 hPa 0,0 mm 0,0 km/h (0 Bft) S 180 7,2 C 0,0 km/h (0 Bft)
09.11.2015 19:35 13,3 C 8,9 C 68 % 1027,1 hPa 0,0 mm 0,0 km/h (0 Bft) S 180 7,5 C 0,0 km/h (0 Bft)
09.11.2015 19:40 13,2 C 8,8 C 68 % 1027,1 hPa 0,0 mm 0,0 km/h (0 Bft) S 180 7,4 C 0,0 km/h (0 Bft)
09.11.2015 19:45 12,8 C 8,5 C 69 % 1027,1 hPa 0,0 mm 0,0 km/h (0 Bft) S 180 7,3 C 0,0 km/h (0 Bft)
09.11.2015 19:50 12,8 C 8,5 C 69 % 1027,6 hPa 0,0 mm 0,0 km/h (0 Bft) S 180 7,3 C 0,0 km/h (0 Bft)
09.11.2015 19:55 12,7 C 8,5 C 71 % 1027,6 hPa 0,0 mm 0,0 km/h (0 Bft) S 180 7,6 C 0,0 km/h (0 Bft)
09.11.2015 20:00 12,6 C 8,4 C 71 % 1027,6 hPa 0,0 mm 0,0 km/h (0 Bft) S 180 7,5 C 0,0 km/h (0 Bft)
09.11.2015 20:05 12,4 C 8,3 C 71 % 1027,6 hPa 0,0 mm 0,0 km/h (0 Bft) S 180 7,3 C 0,0 km/h (0 Bft)
09.11.2015 20:10 12,3 C 8,2 C 72 % 1027,4 hPa 0,0 mm 0,0 km/h (0 Bft) S 180 7,4 C 0,0 km/h (0 Bft)
09.11.2015 20:15 12,3 C 8,2 C 72 % 1027,4 hPa 0,0 mm 0,0 km/h (0 Bft) S 180 7,4 C 0,0 km/h (0 Bft)
09.11.2015 20:20 12,4 C 8,3 C 73 % 1027,4 hPa 0,0 mm 0,0 km/h (0 Bft) S 180 7,7 C 0,0 km/h (0 Bft)
09.11.2015 20:25 12,3 C 8,2 C 73 % 1027,4 hPa 0,0 mm 0,0 km/h (0 Bft) S 180 7,6 C 0,0 km/h (0 Bft)
09.11.2015 20:30 12,3 C 8,2 C 73 % 1027,3 hPa 0,0 mm 0,0 km/h (0 Bft) S 180 7,6 C 0,0 km/h (0 Bft)
09.11.2015 20:32 12,3 C 8,2 C 73 % 1027,3 hPa 0,0 mm 0,0 km/h (0 Bft) S 180 7,6 C 0,0 km/h (0 Bft)
09.11.2015 20:35 12,4 C 8,3 C 74 % 1027,3 hPa 0,0 mm 0,0 km/h (0 Bft) S 180 7,9 C 0,0 km/h (0 Bft)
09.11.2015 20:40 12,6 C 8,4 C 74 % 1027,3 hPa 0,0 mm 0,0 km/h (0 Bft) S 180 8,1 C 0,0 km/h (0 Bft)
09.11.2015 20:45 12,7 C 8,5 C 74 % 1027,3 hPa 0,0 mm 0,0 km/h (0 Bft) S 180 8,2 C 0,0 km/h (0 Bft)
09.11.2015 20:50 12,5 C 8,3 C 74 % 1027,6 hPa 0,0 mm 0,0 km/h (0 Bft) S 180 8,0 C 0,0 km/h (0 Bft)
09.11.2015 20:55 12,3 C 8,2 C 74 % 1027,6 hPa 0,0 mm 0,0 km/h (0 Bft) S 180 7,8 C 0,0 km/h (0 Bft)
09.11.2015 21:00 12,1 C 8,1 C 74 % 1027,6 hPa 0,0 mm 0,0 km/h (0 Bft) S 180 7,6 C 0,0 km/h (0 Bft)
09.11.2015 21:05 11,9 C 7,9 C 75 % 1027,6 hPa 0,0 mm 0,0 km/h (0 Bft) S 180 7,6 C 0,0 km/h (0 Bft)
09.11.2015 21:10 12,1 C 8,1 C 75 % 1027,6 hPa 0,0 mm 0,0 km/h (0 Bft) S 180 7,8 C 0,0 km/h (0 Bft)
09.11.2015 21:15 12,0 C 8,0 C 76 % 1027,6 hPa 0,0 mm 0,0 km/h (0 Bft) S 180 7,9 C 0,0 km/h (0 Bft)
09.11.2015 21:20 11,9 C 7,9 C 76 % 1027,6 hPa 0,0 mm 0,0 km/h (0 Bft) S 180 7,8 C 0,0 km/h (0 Bft)
09.11.2015 21:25 11,8 C 7,9 C 77 % 1027,6 hPa 0,0 mm 0,0 km/h (0 Bft) S 180 7,9 C 0,0 km/h (0 Bft)
09.11.2015 21:30 11,9 C 7,9 C 77 % 1027,8 hPa 0,0 mm 0,0 km/h (0 Bft) S 180 8,0 C 0,0 km/h (0 Bft)
09.11.2015 21:35 11,8 C 7,9 C 77 % 1027,8 hPa 0,0 mm 0,0 km/h (0 Bft) S 180 7,9 C 0,0 km/h (0 Bft)
09.11.2015 21:40 11,7 C 7,8 C 77 % 1027,8 hPa 0,0 mm 0,0 km/h (0 Bft) S 180 7,8 C 0,0 km/h (0 Bft)
09.11.2015 21:45 11,6 C 7,7 C 78 % 1027,8 hPa 0,0 mm 0,0 km/h (0 Bft) S 180 7,9 C 0,0 km/h (0 Bft)
09.11.2015 21:50 11,6 C 7,7 C 78 % 1028,1 hPa 0,0 mm 0,0 km/h (0 Bft) S 180 7,9 C 0,0 km/h (0 Bft)
09.11.2015 21:55 11,5 C 7,7 C 78 % 1028,1 hPa 0,0 mm 0,0 km/h (0 Bft) S 180 7,8 C 0,0 km/h (0 Bft)
09.11.2015 22:00 11,5 C 7,7 C 79 % 1028,1 hPa 0,0 mm 0,0 km/h (0 Bft) S 180 8,0 C 0,0 km/h (0 Bft)
09.11.2015 22:05 11,7 C 7,8 C 79 % 1028,1 hPa 0,0 mm 0,0 km/h (0 Bft) S 180 8,2 C 0,0 km/h (0 Bft)
09.11.2015 22:10 11,5 C 7,7 C 79 % 1027,9 hPa 0,0 mm 0,0 km/h (0 Bft) S 180 8,0 C 0,0 km/h (0 Bft)
09.11.2015 22:15 11,7 C 7,8 C 80 % 1027,9 hPa 0,0 mm 0,0 km/h (0 Bft) S 180 8,4 C 0,0 km/h (0 Bft)
09.11.2015 22:20 11,7 C 7,8 C 80 % 1027,9 hPa 0,0 mm 0,0 km/h (0 Bft) S 180 8,4 C 0,0 km/h (0 Bft)
09.11.2015 22:25 11,8 C 7,9 C 80 % 1027,9 hPa 0,0 mm 0,0 km/h (0 Bft) S 180 8,5 C 0,0 km/h (0 Bft)
09.11.2015 22:30 11,7 C 7,8 C 80 % 1028,1 hPa 0,0 mm 0,0 km/h (0 Bft) S 180 8,4 C 0,0 km/h (0 Bft)
09.11.2015 22:35 11,6 C 7,7 C 80 % 1028,1 hPa 0,0 mm 0,0 km/h (0 Bft) S 180 8,3 C 0,0 km/h (0 Bft)
09.11.2015 22:40 11,5 C 7,7 C 80 % 1028,1 hPa 0,0 mm 0,0 km/h (0 Bft) S 180 8,2 C 0,0 km/h (0 Bft)
09.11.2015 22:45 11,5 C 7,7 C 81 % 1028,1 hPa 0,0 mm 0,0 km/h (0 Bft) S 180 8,4 C 0,0 km/h (0 Bft)
09.11.2015 22:50 11,4 C 7,6 C 81 % 1028,1 hPa 0,0 mm 0,0 km/h (0 Bft) W 270 8,3 C 0,0 km/h (0 Bft)
09.11.2015 22:55 11,5 C 11,3 C 81 % 1027,9 hPa 0,0 mm 7,5 km/h (2 Bft) SW 225 8,4 C 6,5 km/h (2 Bft)
09.11.2015 23:00 11,4 C 11,2 C 81 % 1027,9 hPa 0,0 mm 7,8 km/h (2 Bft) W-SW 247 8,3 C 13,2 km/h (3 Bft)
09.11.2015 23:05 11,5 C 11,3 C 82 % 1027,9 hPa 0,0 mm 8,0 km/h (2 Bft) W-SW 247 8,5 C 9,8 km/h (2 Bft)
09.11.2015 23:10 11,5 C 11,2 C 82 % 1027,7 hPa 0,0 mm 9,1 km/h (2 Bft) W-SW 247 8,5 C 34,4 km/h (5 Bft)
09.11.2015 23:15 11,5 C 11,2 C 82 % 1027,7 hPa 0,0 mm 9,6 km/h (2 Bft) W 270 8,5 C 9,6 km/h (2 Bft)
09.11.2015 23:20 11,5 C 11,2 C 82 % 1027,7 hPa 0,0 mm 9,3 km/h (2 Bft) W-SW 247 8,5 C 6,5 km/h (2 Bft)
09.11.2015 23:25 11,2 C 11,1 C 82 % 1027,7 hPa 0,0 mm 7,5 km/h (2 Bft) W-NW 292 8,2 C 4,4 km/h (1 Bft)
09.11.2015 23:30 11,3 C 11,1 C 82 % 1027,6 hPa 0,0 mm 7,3 km/h (2 Bft) W-SW 247 8,3 C 9,1 km/h (2 Bft)
09.11.2015 23:35 11,3 C 11,1 C 82 % 1027,6 hPa 0,0 mm 7,3 km/h (2 Bft) W 270 8,3 C 7,8 km/h (2 Bft)
09.11.2015 23:40 11,3 C 11,1 C 82 % 1027,6 hPa 0,0 mm 7,3 km/h (2 Bft) W-SW 247 8,3 C 12,9 km/h (3 Bft)
09.11.2015 23:45 11,2 C 11,0 C 82 % 1027,6 hPa 0,0 mm 7,0 km/h (2 Bft) W-SW 247 8,2 C 18,1 km/h (3 Bft)
09.11.2015 23:50 11,2 C 11,0 C 82 % 1027,4 hPa 0,0 mm 7,5 km/h (2 Bft) W 270 8,2 C 5,2 km/h (1 Bft)
09.11.2015 23:55 11,2 C 11,0 C 83 % 1027,4 hPa 0,0 mm 7,8 km/h (2 Bft) O-SO 112 8,4 C 10,6 km/h (2 Bft)
_ Min-Zeit 02:50 02:50 15:05 04:25 - 22:50 - - 03:50 22:50
Minimum _ 5,9 C 3,9 C 49 % 1024,6 hPa - 0,0 km/h (0 Bft) - - 2,3 C 0,0 km/h (0 Bft)
_ Max-Zeit 14:45 14:40 00:50 22:50 23:55 23:15 - - 23:20 23:10
Maximum _ 19,3 C 13,0 C 91 % 1028,1 hPa 0,0 mm 9,6 km/h
W (2 Bft)
- - 8,5 C 34,4 km/h
W-SW (5 Bft)
Durchschnitt _ 13,6 C 9,3 C 63 % 1026,3 hPa #0,0 mm 0,4 km/h (0 Bft) W-SW - 6,4 C 0,5 km/h (0 Bft)